ht.ly alexa rank chart, ht.ly alexa rank daily changes

ht.ly alexa rank chart, ht.ly alexa rank daily changes

ht.ly
Actual rank:
29 098

RANK HISTORY

Date Rank Diff
2017/01/24 29 098 +266
2017/01/23 28 832 +186
2017/01/22 28 646 -44
2017/01/21 28 690 -210
2017/01/20 28 900 +315
2017/01/19 28 585 +80
2017/01/18 28 505 +260
2017/01/17 28 245 +105
2017/01/16 28 140 +467
2017/01/15 27 673 +202
2017/01/14 27 471 -363
2017/01/13 27 834 +19
2017/01/12 27 815 -93
2017/01/11 27 908 -57
2017/01/10 27 965 +41
2017/01/09 27 924 -49
2017/01/08 27 973 -159
2017/01/07 28 132 -13
2017/01/06 28 145 +34
2017/01/05 28 111 +262
2017/01/04 27 849 +368
2017/01/03 27 481 -14
2017/01/02 27 495 +267
2017/01/01 27 228 -30
2016/12/31 27 258 +546
2016/12/30 26 712 +97
2016/12/29 26 615 -485
2016/12/28 27 100 -169
2016/12/27 27 269 +18
2016/12/26 27 251 +156
2016/12/25 27 095 +432
2016/12/24 26 663 +1
2016/12/23 26 662 +41
2016/12/22 26 621 -21
2016/12/21 26 642 +136
2016/12/20 26 506 +300
2016/12/19 26 206 +307
2016/12/18 25 899 -6
2016/12/17 25 905 +133
2016/12/16 25 772 -105
2016/12/15 25 877 -58
2016/12/14 25 935 +328
2016/12/13 25 607 +187
2016/12/12 25 420 +434
2016/12/11 24 986 +405
2016/12/10 24 581 +27
2016/12/09 24 554 +109
2016/12/08 24 445 +91
2016/12/07 24 354 +220
2016/12/06 24 134 +228
2016/12/05 23 906 -34
2016/12/04 23 940 +295
2016/12/02 23 645 -201
2016/12/01 23 846 -853
2016/11/30 24 699 -30
2016/11/29 24 729 +602
2016/11/28 24 127 +488
2016/11/27 23 639 +512
2016/11/26 23 127 +231
2016/11/25 22 896

WIDGET FOR YOUR SITE

DOMAINS WITH THE NEAREST RANK

Domain Rank
a101.com.tr 29 093
gossipmill.com 29 094
olympia.gr 29 095
bug.hr 29 096
crazydomains.com.au 29 097
ht.ly 29 098
testforspeed-1239.appspot.com 29 099
swissinfo.ch 29 100
mozzartsport.com 29 101
ahlqs.com 29 102
n264adserv.com 29 103

DOMAINS WITH THE NEAREST RANK BY TLD .ly

Domain Rank
cl.ly 22 115
slide.ly 22 436
plot.ly 23 477
al.ly 23 537
musical.ly 28 139
ht.ly 29 098
profit.ly 33 342
ow.ly 33 802